This demonstration page uses our WeatherBlox Daily Observations layout. Learn more.

Left ArrowRight Arrow

36.19886, -115.1175

Hourly Observations for February 9, 2022

Temp ( °F °C ) Dew Point ( °F °C ) Humidity (%) Winds ( mph kmh ) Pressure ( in mb ) Visibility ( mi km ) Precip ( " mm )
12:53 am 00:53 Clear 56 13.3 12 -11.1 17 17 N 3 6 30.29 1026 10 16 0.00 0.00
1:53 am 01:53 Clear 57 13.9 13 -10.6 17 17 NNW 12 19 30.27 1025 10 16 0.00 0.00
2:53 am 02:53 Clear 55 12.8 13 -10.6 19 19 N 7 11 30.27 1025 10 16 0.00 0.00
3:53 am 03:53 Clear 56 13.3 14 -10 19 19 NNW 15 24 30.26 1025 10 16 0.00 0.00
4:53 am 04:53 Clear 53 11.7 14 -10 21 21 N 3 6 30.28 1025 10 16 0.00 0.00
5:53 am 05:53 Clear 53 11.7 15 -9.4 22 22 NW 8 13 30.29 1026 10 16 0.00 0.00
6:53 am 06:53 Sunny 53 11.7 15 -9.4 22 22 VRB 3 6 30.31 1026 10 16 0.00 0.00
7:53 am 07:53 Sunny 57 13.9 15 -9.4 19 19 N 13 20 30.31 1027 10 16 0.00 0.00
8:53 am 08:53 Sunny 60 15.6 15 -9.4 17 17 N 15 24 30.31 1026 10 16 0.00 0.00
9:53 am 09:53 Sunny 66 18.9 15 -9.4 14 14 NNW 14 22 30.31 1026 10 16 0.00 0.00
10:53 am 10:53 Sunny 70 21.1 13 -10.6 11 11 NNW 16 26 30.28 1025 10 16 0.00 0.00
11:53 am 11:53 Sunny 72 22.2 12 -11.1 10 10 NNW 13 20 30.25 1024 10 16 0.00 0.00
12:53 pm 12:53 Sunny 74 23.3 12 -11.1 9 9 NW 14 22 30.21 1023 10 16 0.00 0.00
1:53 pm 13:53 Sunny 75 23.9 10 -12.2 8 8 N 14 22 30.17 1022 10 16 0.00 0.00
2:53 pm 14:53 Sunny 76 24.4 10 -12.2 8 8 NNW 14 22 30.15 1021 10 16 0.00 0.00
3:53 pm 15:53 Sunny 76 24.4 13 -10.6 9 9 NW 17 28 30.13 1020 10 16 0.00 0.00
4:53 pm 16:53 Sunny 74 23.3 13 -10.6 9 9 NE 3 6 30.13 1020 10 16 0.00 0.00
5:53 pm 17:53 Clear 71 21.7 15 -9.4 12 12 NNW 12 19 30.13 1020 10 16 0.00 0.00
6:53 pm 18:53 Clear 69 20.6 16 -8.9 13 13 N 8 13 30.15 1021 10 16 0.00 0.00
7:53 pm 19:53 Clear 66 18.9 17 -8.3 15 15 WNW 7 11 30.17 1022 10 16 0.00 0.00
8:53 pm 20:53 Clear 64 17.8 20 -6.7 18 18 NNW 6 9 30.19 1023 10 16 0.00 0.00
9:53 pm 21:53 Clear 64 17.8 21 -6.1 19 19 N 8 13 30.20 1023 10 16 0.00 0.00
10:53 pm 22:53 Clear 64 17.8 24 -4.4 22 22 N 15 24 30.21 1023 10 16 0.00 0.00
11:53 pm 23:53 Clear 66 18.9 24 -4.4 20 20 N 6 9 30.24 1024 10 16 0.00 0.00

Powered by AerisWeather